GW0719 Weather Reports


Display with metric or nautical units.
time (UTC)temp
F
wind
direction
speed
MPH
gust
MPH
rain 1hr
in
rain 24hr
in
rain mn
in
humidity
%
barometer
mb
20260901131551 44 25 0.0 0.0 0.00 0.00 0.00 10 1015.5
20260901131045 45 8 0.0 0.0 0.00 0.00 0.00 10 1015.4
20260901130540 45 12 0.0 0.0 0.00 0.00 0.00 10 1015.4
20260901130039 44 2 0.0 0.0 0.00 0.00 0.00 10 1015.3
20260901125537 44 349 0.0 0.0 0.00 0.00 0.00 10 1015.3
20260901125033 42 13 0.0 0.0 0.00 0.00 0.00 10 1015.4
20260901124532 42 16 0.0 0.0 0.00 0.00 0.00 10 1015.5
20260901124027 42 10 0.0 0.0 0.00 0.00 0.00 10 1015.4
20260901123522 43 25 0.0 0.0 0.00 0.00 0.00 10 1015.5
20260901123016 44 33 0.0 0.0 0.00 0.00 0.00 10 1015.4
20260901122515 46 10 0.0 0.0 0.00 0.00 0.00 10 1015.5
20260901122014 47 40 0.0 0.0 0.00 0.00 0.00 10 1015.5
20260901121508 47 46 0.0 0.0 0.00 0.00 0.00 10 1015.4
20260901121003 47 39 0.0 0.0 0.00 0.00 0.00 10 1015.5
20260901120458 47 53 0.0 0.0 0.00 0.00 0.00 10 1015.4
20260901115953 47 42 0.0 0.0 0.00 0.00 0.00 10 1015.6
20260901115448 47 45 0.0 0.0 0.00 0.00 0.00 10 1015.5
20260901114946 48 51 0.0 0.0 0.00 0.00 0.00 10 1015.5
20260901114441 49 48 0.0 0.0 0.00 0.00 0.00 10 1015.6
20260901113939 49 50 0.0 0.0 0.00 0.00 0.00 10 1015.8
20260901113438 49 44 0.0 0.0 0.00 0.00 0.00 10 1015.7
20260901112934 48 39 0.0 0.0 0.00 0.00 0.00 10 1015.5
20260901112429 48 10 0.0 0.0 0.00 0.00 0.00 10 1015.7
20260901111924 48 29 0.0 0.0 0.00 0.00 0.00 10 1015.6
20260901111423 48 42 0.0 0.0 0.00 0.00 0.00 10 1015.6
20260901110921 48 47 0.0 0.0 0.00 0.00 0.00 10 1015.6
20260901110417 48 47 0.0 0.0 0.00 0.00 0.00 10 1015.5
20260901105913 48 45 0.0 0.0 0.00 0.00 0.00 10 1015.9
20260901105408 48 22 0.0 0.0 0.00 0.00 0.00 10 1015.7
20260901104904 48 42 0.0 0.0 0.00 0.00 0.00 10 1015.6
20260901104359 48 21 0.0 0.0 0.00 0.00 0.00 10 1015.5
20260901103854 48 28 0.0 0.0 0.00 0.00 0.00 10 1015.7
20260901103348 49 33 0.0 0.0 0.00 0.00 0.00 10 1015.8
20260901102843 49 34 0.0 0.0 0.00 0.00 0.00 10 1015.9
20260901102338 49 39 0.0 0.0 0.00 0.00 0.00 10 1015.9
20260901101834 49 30 0.0 0.0 0.00 0.00 0.00 10 1015.8
20260901101333 48 36 0.0 0.0 0.00 0.00 0.00 10 1016.1
20260901100832 49 43 0.0 0.0 0.00 0.00 0.00 10 1015.8
20260901100327 48 48 0.0 0.0 0.00 0.00 0.00 10 1016.1
20260901095827 49 58 0.0 0.0 0.00 0.00 0.00 10 1015.9
20260901095324 50 51 0.0 0.0 0.00 0.00 0.00 10 1015.8
20260901094818 50 53 0.0 0.0 0.00 0.00 0.00 10 1015.9
20260901094313 50 50 0.0 0.0 0.00 0.00 0.00 10 1015.8
20260901093808 50 36 0.0 0.0 0.00 0.00 0.00 10 1016.2
20260901093307 50 51 0.0 0.0 0.00 0.00 0.00 10 1015.9
20260901092803 50 55 0.0 0.0 0.00 0.00 0.00 10 1015.9
20260901092259 50 55 0.0 0.0 0.00 0.00 0.00 10 1015.8
20260901091755 51 65 0.0 0.0 0.00 0.00 0.00 10 1016.1
20260901091249 50 63 0.0 0.0 0.00 0.00 0.00 10 1016.1
20260901090744 51 62 0.0 0.0 0.00 0.00 0.00 10 1015.9
20260901090239 51 64 0.0 0.0 0.00 0.00 0.00 10 1015.9
20260901085735 51 63 0.0 0.0 0.00 0.00 0.00 10 1016.1
20260901085230 51 67 0.0 0.0 0.00 0.00 0.00 10 1016.1
20260901084727 51 66 0.0 0.0 0.00 0.00 0.00 10 1015.9
20260901084223 52 77 0.0 0.0 0.00 0.00 0.00 10 1016.1
20260901083717 51 80 0.0 0.0 0.00 0.00 0.00 10 1015.9
20260901083216 50 76 0.0 0.0 0.00 0.00 0.00 10 1016.1
20260901082715 54 63 0.0 0.0 0.00 0.00 0.00 10 1016.1
20260901082211 53 63 0.0 0.0 0.00 0.00 0.00 10 1016.2
20260901081707 53 63 0.0 0.0 0.00 0.00 0.00 10 1015.8
20260901081206 52 62 0.0 0.0 0.00 0.00 0.00 10 1015.9
20260901080701 53 57 0.0 0.0 0.00 0.00 0.00 10 1016.1
20260901080200 53 60 0.0 0.0 0.00 0.00 0.00 10 1015.9
20260901075655 53 48 0.0 0.0 0.00 0.00 0.00 10 1015.8
20260901075154 53 49 0.0 0.0 0.00 0.00 0.00 10 1015.8
20260901074654 52 47 0.0 0.0 0.00 0.00 0.00 10 1016.1
20260901074149 52 47 0.0 0.0 0.00 0.00 0.00 10 1016.2
20260901073645 52 37 0.0 0.0 0.00 0.00 0.00 10 1016.1
20260901073141 54 37 0.0 0.0 0.00 0.00 0.00 10 1016.3
20260901072636 53 36 0.0 0.0 0.00 0.00 0.00 10 1016.1
20260901072131 55 48 0.0 0.0 0.00 0.00 0.00 10 1016.2
20260901071625 54 48 0.0 0.0 0.00 0.00 0.00 10 1016.2
20260901071124 53 48 0.0 0.0 0.00 0.00 0.00 10 1016.3
20260901070619 51 48 0.0 0.0 0.00 0.00 0.00 10 1016.1
20260901070114 52 49 0.0 0.0 0.00 0.00 0.00 10 1016.4
20260901065608 53 48 0.0 0.0 0.00 0.00 0.00 10 1016.4
20260901065103 53 51 0.0 0.0 0.00 0.00 0.00 10 1016.2
20260901064600 53 52 0.0 0.0 0.00 0.00 0.00 10 1016.4
20260901064056 53 51 0.0 0.0 0.00 0.00 0.00 10 1016.6
20260901063553 53 52 0.0 0.0 0.00 0.00 0.00 10 1016.3
20260901063049 54 55 0.0 0.0 0.00 0.00 0.00 10 1016.4
20260901062544 55 57 0.0 0.0 0.00 0.00 0.00 10 1016.3
20260901062040 56 60 0.0 0.0 0.00 0.00 0.00 10 1016.2
20260901061537 57 77 0.0 0.0 0.00 0.00 0.00 10 1016.1
20260901061036 58 144 0.0 0.0 0.00 0.00 0.00 10 1016.3
20260901060531 59 186 0.0 0.0 0.00 0.00 0.00 10 1016.2
20260901060026 58 181 0.0 0.0 0.00 0.00 0.00 10 1016.2
20260901055521 58 181 0.0 0.0 0.00 0.00 0.00 10 1016.2
20260901055018 58 131 0.0 0.0 0.00 0.00 0.00 10 1016.4
20260901054515 57 216 0.0 0.0 0.00 0.00 0.00 10 1016.4
20260901054011 57 148 0.0 0.0 0.00 0.00 0.00 10 1016.4
20260901053506 57 162 0.0 0.0 0.00 0.00 0.00 10 1016.3
20260901053002 56 112 0.0 0.0 0.00 0.00 0.00 10 1016.5
20260901052458 57 63 0.0 0.0 0.00 0.00 0.00 10 1016.3
20260901051956 57 177 0.0 0.0 0.00 0.00 0.00 10 1016.3
20260901051452 54 95 0.0 0.0 0.00 0.00 0.00 10 1016.4
20260901050951 56 67 0.0 0.0 0.00 0.00 0.00 10 1016.4
20260901050447 56 102 0.0 0.0 0.00 0.00 0.00 10 1016.4
20260901045946 55 15 0.0 0.0 0.00 0.00 0.00 10 1016.4
20260901045442 56 43 0.0 0.0 0.00 0.00 0.00 10 1016.5
20260901044937 57 75 0.0 0.0 0.00 0.00 0.00 10 1016.4
20260901044432 58 81 0.0 0.0 0.00 0.00 0.00 10 1016.7
20260901043928 57 85 0.0 0.0 0.00 0.00 0.00 10 1016.6
20260901043425 58 81 0.0 0.0 0.00 0.00 0.00 10 1016.5
20260901042924 57 136 0.0 0.0 0.00 0.00 0.00 10 1016.4
20260901042419 59 183 0.0 0.0 0.00 0.00 0.00 10 1016.5
20260901041914 59 164 0.0 0.0 0.00 0.00 0.00 10 1016.6
20260901041414 58 193 0.0 0.0 0.00 0.00 0.00 10 1016.6
20260901040913 55 143 0.0 0.0 0.00 0.00 0.00 10 1016.6
20260901040408 55 39 0.0 0.0 0.00 0.00 0.00 10 1016.5
20260901035902 56 54 0.0 0.0 0.00 0.00 0.00 10 1016.5
20260901035401 55 54 0.0 0.0 0.00 0.00 0.00 10 1016.4
20260901034859 55 54 0.0 0.0 0.00 0.00 0.00 10 1016.4
20260901034354 56 54 0.0 0.0 0.00 0.00 0.00 10 1016.4
20260901033849 56 61 0.0 0.0 0.00 0.00 0.00 10 1016.1
20260901033348 57 66 0.0 0.0 0.00 0.00 0.00 10 1016.2
20260901032847 56 77 0.0 0.0 0.00 0.00 0.00 10 1016.1
20260901032346 56 64 0.0 0.0 0.00 0.00 0.00 10 1015.8
20260901031842 57 68 0.0 0.0 0.00 0.00 0.00 10 1016.2
20260901031338 57 80 0.0 0.0 0.00 0.00 0.00 10 1016.1
20260901030837 57 61 0.0 0.0 0.00 0.00 0.00 10 1015.8
20260901030333 58 51 0.0 0.0 0.00 0.00 0.00 10 1015.9
20260901025831 59 42 0.0 0.0 0.00 0.00 0.00 10 1015.8
20260901025326 60 30 0.0 0.0 0.00 0.00 0.00 10 1015.9
20260901024821 61 84 0.0 0.0 0.00 0.00 0.00 10 1015.8
20260901024321 64 105 0.0 0.0 0.00 0.00 0.00 10 1015.9
20260901023819 63 187 0.0 0.0 0.00 0.00 0.00 10 1015.8
20260901023314 62 188 0.0 0.0 0.00 0.00 0.00 10 1015.7
20260901022809 65 134 0.0 1.0 0.00 0.00 0.00 10 1015.5
20260901022306 65 178 0.0 1.0 0.00 0.00 0.00 10 1015.8
20260901021800 65 187 0.0 1.0 0.00 0.00 0.00 10 1015.6
20260901021256 67 105 0.0 0.0 0.00 0.00 0.00 10 1015.8
20260901020750 67 177 0.0 0.0 0.00 0.00 0.00 10 1015.7
20260901020246 67 183 0.0 0.0 0.00 0.00 0.00 10 1015.8
20260901015741 68 201 0.0 0.0 0.00 0.00 0.00 10 1015.8
20260901015237 69 194 0.0 0.0 0.00 0.00 0.00 10 1015.6
20260901014736 70 197 0.0 0.0 0.00 0.00 0.00 10 1015.8
20260901014232 71 209 0.0 0.0 0.00 0.00 0.00 10 1015.6
20260901013727 73 181 0.0 0.0 0.00 0.00 0.00 10 1015.4
20260901013223 73 245 0.0 0.0 0.00 0.00 0.00 10 1015.5
20260901012718 73 265 0.0 0.0 0.00 0.00 0.00 10 1015.5
20260901012218 74 252 0.0 0.0 0.00 0.00 0.00 10 1015.9
20260901011714 74 11 0.0 0.0 0.00 0.00 0.00 10 1015.7
20260901011214 74 244 0.0 0.0 0.00 0.00 0.00 10 1015.9
20260901010708 74 30 0.0 0.0 0.00 0.00 0.00 10 1015.8
20260901010203 74 353 0.0 0.0 0.00 0.00 0.00 10 1016.1
20260901005702 74 302 0.0 0.0 0.00 0.00 0.00 10 1015.9
20260901005157 75 330 0.0 0.0 0.00 0.00 0.00 10 1016.1
20260901004657 75 352 0.0 0.0 0.00 0.00 0.00 10 1015.9
20260901004151 75 277 0.0 0.0 0.00 0.00 0.00 10 1015.9
20260901003646 75 235 0.0 0.0 0.00 0.00 0.00 10 1016.1
20260901003146 75 348 0.0 0.0 0.00 0.00 0.00 10 1016.1
20260901002639 75 92 0.0 0.0 0.00 0.00 0.00 10 1016.1
20260901002134 75 2 0.0 0.0 0.00 0.00 0.00 10 1015.9
20260901001630 75 310 0.0 0.0 0.00 0.00 0.00 10 1016.1
20260901001124 76 49 0.0 0.0 0.00 0.00 0.00 10 1016.2
20260901000619 75 244 0.0 0.0 0.00 0.00 0.00 10 1016.2
20260901000110 74 346 0.0 0.0 0.00 0.00 0.00 10 1016.2
20260831235603 74 311 0.0 0.0 0.00 0.00 0.00 10 1016.1
20260831235058 74 294 0.0 0.0 0.00 0.00 0.00 10 1016.1
20260831234552 75 259 0.0 0.0 0.00 0.00 0.00 10 1015.9
20260831234048 74 35 0.0 0.0 0.00 0.00 0.00 10 1016.1
20260831233543 75 17 0.0 0.0 0.00 0.00 0.00 10 1016.3
20260831233039 75 334 0.0 1.0 0.00 0.00 0.00 10 1016.1
20260831232534 75 293 0.0 1.0 0.00 0.00 0.00 10 1016.2
20260831232030 75 245 0.0 0.0 0.00 0.00 0.00 10 1016.3
20260831231526 76 146 0.0 0.0 0.00 0.00 0.00 10 1016.2
20260831231021 75 232 0.0 0.0 0.00 0.00 0.00 10 1016.4
20260831230516 75 237 0.0 0.0 0.00 0.00 0.00 10 1016.4
20260831230011 74 10 0.0 0.0 0.00 0.00 0.00 10 1016.4
20260831225507 74 333 0.0 1.0 0.00 0.00 0.00 10 1016.1
20260831225006 74 317 0.0 1.0 0.00 0.00 0.00 10 1016.4
20260831224501 74 138 0.0 0.0 0.00 0.00 0.00 10 1016.3
20260831223956 74 246 0.0 0.0 0.00 0.00 0.00 10 1016.4
20260831223452 74 236 0.0 0.0 0.00 0.00 0.00 10 1016.2
20260831222948 74 52 0.0 0.0 0.00 0.00 0.00 10 1016.2
20260831222444 74 324 0.0 0.0 0.00 0.00 0.00 10 1016.3
20260831221943 73 46 0.0 0.0 0.00 0.00 0.00 10 1016.4
20260831221439 74 312 0.0 0.0 0.00 0.00 0.00 10 1016.4
20260831220935 74 314 0.0 3.0 0.00 0.00 0.00 10 1016.4
20260831220430 74 305 0.0 0.0 0.00 0.00 0.00 10 1016.5
20260831215925 75 291 0.0 1.0 0.00 0.00 0.00 10 1016.4
20260831215421 74 242 0.0 0.0 0.00 0.00 0.00 10 1016.7
20260831214917 74 225 0.0 1.0 0.00 0.00 0.00 10 1016.7
20260831214414 73 291 0.0 2.0 0.00 0.00 0.00 10 1016.6
20260831213909 73 328 0.0 1.0 0.00 0.00 0.00 10 1016.7
20260831213406 72 6 0.0 0.0 0.00 0.00 0.00 10 1016.9
20260831212901 72 330 0.0 1.0 0.00 0.00 0.00 10 1016.9
20260831212357 72 277 0.0 0.0 0.00 0.00 0.00 10 1016.6
20260831211856 72 268 0.0 0.0 0.00 0.00 0.00 10 1016.9
20260831211356 73 276 0.0 0.0 0.00 0.00 0.00 10 1016.9
20260831210856 72 316 0.0 1.0 0.00 0.00 0.00 10 1016.7
20260831210351 72 32 0.0 0.0 0.00 0.00 0.00 10 1016.8
20260831205847 72 283 0.0 1.0 0.00 0.00 0.00 10 1016.9
20260831205343 72 312 0.0 0.0 0.00 0.00 0.00 10 1017.0
20260831204837 72 295 0.0 0.0 0.00 0.00 0.00 10 1016.9
20260831204336 72 296 0.0 1.0 0.00 0.00 0.00 10 1016.9
20260831203836 72 302 0.0 0.0 0.00 0.00 0.00 10 1016.9
20260831203331 72 285 0.0 0.0 0.00 0.00 0.00 10 1017.2
20260831202829 71 293 0.0 0.0 0.00 0.00 0.00 10 1017.2
20260831202324 71 85 0.0 1.0 0.00 0.00 0.00 10 1016.9
20260831201824 71 4 0.0 1.0 0.00 0.00 0.00 10 1017.4
20260831201323 71 332 0.0 1.0 0.00 0.00 0.00 10 1017.0
20260831200819 71 295 0.0 0.0 0.00 0.00 0.00 10 1017.0
20260831200314 71 340 0.0 0.0 0.00 0.00 0.00 10 1017.3
20260831195809 71 298 0.0 0.0 0.00 0.00 0.00 10 1017.4
20260831195306 71 289 0.0 0.0 0.00 0.00 0.00 10 1017.5
20260831194801 70 246 0.0 1.0 0.00 0.00 0.00 10 1017.4
20260831194256 71 319 0.0 0.0 0.00 0.00 0.00 10 1017.4
20260831193754 70 324 0.0 1.0 0.00 0.00 0.00 10 1017.4
20260831193250 70 299 0.0 0.0 0.00 0.00 0.00 10 1017.3
20260831192745 71 266 0.0 1.0 0.00 0.00 0.00 10 1017.5
20260831192240 71 288 0.0 1.0 0.00 0.00 0.00 10 1017.5
20260831191736 69 297 0.0 2.0 0.00 0.00 0.00 10 1017.7
20260831191232 70 290 0.0 0.0 0.00 0.00 0.00 10 1017.6
20260831190727 70 353 0.0 1.0 0.00 0.00 0.00 10 1017.7
20260831190227 70 344 0.0 1.0 0.00 0.00 0.00 10 1017.7
20260831185721 70 291 0.0 0.0 0.00 0.00 0.00 10 1017.5
20260831185217 69 34 0.0 0.0 0.00 0.00 0.00 10 1017.7
20260831184716 69 4 0.0 1.0 0.00 0.00 0.00 10 1017.7
20260831184212 69 34 0.0 1.0 0.00 0.00 0.00 10 1017.8
20260831183711 69 51 0.0 0.0 0.00 0.00 0.00 10 1017.8
20260831183206 68 12 0.0 0.0 0.00 0.00 0.00 10 1017.9
20260831182705 68 344 0.0 1.0 0.00 0.00 0.00 10 1018.3
20260831182200 69 353 0.0 2.0 0.00 0.00 0.00 10 1017.8
20260831181655 69 31 0.0 0.0 0.00 0.00 0.00 10 1017.9
20260831181149 68 332 0.0 0.0 0.00 0.00 0.00 10 1018.1
20260831180645 68 44 0.0 0.0 0.00 0.00 0.00 10 1018.1
20260831180139 68 4 0.0 0.0 0.00 0.00 0.00 10 1017.8
20260831175634 68 321 0.0 0.0 0.00 0.00 0.00 10 1018.1
20260831175131 68 356 0.0 0.0 0.00 0.00 0.00 10 1018.4
20260831174625 67 321 0.0 2.0 0.00 0.00 0.00 10 1018.1
20260831174120 68 339 0.0 0.0 0.00 0.00 0.00 10 1018.0
20260831173618 67 338 0.0 0.0 0.00 0.00 0.00 10 1018.4
20260831173115 68 328 0.0 0.0 0.00 0.00 0.00 10 1018.3
20260831172615 67 319 0.0 2.0 0.00 0.00 0.00 10 1018.1
20260831172114 66 23 1.0 1.0 0.00 0.00 0.00 10 1018.3
20260831171610 66 9 0.0 0.0 0.00 0.00 0.00 10 1018.1
20260831171108 67 13 0.0 1.0 0.00 0.00 0.00 10 1018.6
20260831170603 66 348 0.0 3.0 0.00 0.00 0.00 10 1018.0
20260831170100 66 12 0.0 2.0 0.00 0.00 0.00 10 1018.4
20260831165555 66 1 0.0 0.0 0.00 0.00 0.00 10 1018.4
20260831165052 66 10 0.0 1.0 0.00 0.00 0.00 10 1018.5
20260831164547 66 336 0.0 2.0 0.00 0.00 0.00 10 1018.0
20260831164043 65 355 0.0 2.0 0.00 0.00 0.00 10 1018.4
20260831163537 65 348 0.0 3.0 0.00 0.00 0.00 10 1018.3
20260831163033 65 7 0.0 3.0 0.00 0.00 0.00 10 1018.1
20260831162532 65 355 0.0 0.0 0.00 0.00 0.00 10 1018.1
20260831162030 65 357 0.0 0.0 0.00 0.00 0.00 10 1018.3
20260831161527 65 326 1.0 2.0 0.00 0.00 0.00 10 1018.1
20260831161023 64 359 1.0 5.0 0.00 0.00 0.00 10 1018.1
20260831160522 64 356 0.0 1.0 0.00 0.00 0.00 10 1018.0
20260831160018 64 332 1.0 3.0 0.00 0.00 0.00 10 1017.9
20260831155512 64 356 0.0 2.0 0.00 0.00 0.00 10 1017.9
20260831155007 64 331 1.0 2.0 0.00 0.00 0.00 10 1017.7
20260831154503 63 355 1.0 5.0 0.00 0.00 0.00 10 1017.7
20260831154002 63 344 0.0 1.0 0.00 0.00 0.00 10 1017.8
20260831153457 63 2 0.0 2.0 0.00 0.00 0.00 10 1018.0
20260831152954 63 338 0.0 3.0 0.00 0.00 0.00 10 1017.9
20260831152448 63 27 0.0 2.0 0.00 0.00 0.00 10 1017.9
20260831151944 63 326 0.0 1.0 0.00 0.00 0.00 10 1017.7
20260831151443 63 349 1.0 2.0 0.00 0.00 0.00 10 1017.7
20260831150938 63 334 2.0 3.0 0.00 0.00 0.00 10 1017.6
20260831150434 63 335 0.0 1.0 0.00 0.00 0.00 10 1017.8
20260831145933 63 323 1.0 2.0 0.00 0.00 0.00 10 1017.6
20260831145430 63 322 0.0 0.0 0.00 0.00 0.00 10 1017.6
20260831144925 63 7 0.0 2.0 0.00 0.00 0.00 10 1017.4
20260831144421 62 323 3.0 3.0 0.00 0.00 0.00 10 1017.4
20260831143916 61 325 0.0 0.0 0.00 0.00 0.00 10 1017.4
20260831143411 61 316 0.0 1.0 0.00 0.00 0.00 10 1017.4
20260831142907 61 329 0.0 3.0 0.00 0.00 0.00 10 1017.2
20260831142402 60 310 1.0 3.0 0.00 0.00 0.00 10 1017.3
20260831141856 60 302 0.0 1.0 0.00 0.00 0.00 10 1017.3
20260831141350 58 326 0.0 0.0 0.00 0.00 0.00 10 1017.2
20260831140845 58 295 0.0 0.0 0.00 0.00 0.00 10 1016.8
20260831140340 57 258 0.0 0.0 0.00 0.00 0.00 10 1016.8
20260831135838 56 313 0.0 0.0 0.00 0.00 0.00 10 1016.9
20260831135333 55 286 0.0 0.0 0.00 0.00 0.00 10 1016.8
20260831134829 55 302 0.0 0.0 0.00 0.00 0.00 10 1017.0
20260831134326 55 308 0.0 0.0 0.00 0.00 0.00 10 1016.9
20260831133825 55 319 0.0 0.0 0.00 0.00 0.00 10 1016.8
20260831133324 54 272 0.0 0.0 0.00 0.00 0.00 10 1016.6
20260831132819 53 294 0.0 0.0 0.00 0.00 0.00 10 1016.6
20260831132314 53 259 0.0 0.0 0.00 0.00 0.00 10 1016.7